Content
SEND FEEDBACK

Daily
Averages
Monthly
Summary
United States of America

TAMUNING, GUAM


Home > North America > United States > Guam
Elevation: 250 feet     Latitude: 13 29N     Longitude: 144 47E

WEATHER
 
SELECT A DAY
Number of Records: 342,273;   Date Range: 1/1/95 - 8/30/14
 
SHARE

PRINT THIS DATA

[ ← Previous Day ]
WEATHER ALMANAC - JULY 23, 2013
[ Next Day → ]
[ °C ]   °F
Weather ElementAverageHighLow
Temperature78.9 °F86 °F (1:11 pm)75.2 °F (5:04 am)
Dewpoint74.9 °F81 °F (2:55 pm)69.8 °F (5:05 am)
Humidity87.4 %95 % (10:55 pm)74 % (5:55 pm)
Barometer29.86 in29.93 in (10:55 pm)29.82 in (3:55 pm)
Wind Speed5.8 mph20.7 mph (5:37 am)
Wind Gust29.9 mph (5:39 am)
Weather ElementAverage
Visibility7 mi
Wind DirectionSE (137 °)

Weather ElementTotal
Precipitation1.41 in
Cooling Degree Days15.6 (Base 65)
Growing Degree Days30.6 (Base 50)
Averaged from 100 records on July 23, 2013
WEATHER CONDITIONS BREAKOUT
WIND DIRECTION BREAKOUT
WEATHER BY HOUR - JULY 23, 2013
[ °C ]   °F
Local TimeTemperatureDewpointHumidityBarometerVisibilityWind DirectionWind SpeedGust SpeedPrecipitationEventsConditions
12:02 AM80.6 °F77.0 °F89 %29.88 in5.0 miCalmRainLight Rain
12:06 AM78.8 °F77.0 °F94 %29.88 in5.0 miCalmRainLight Rain
12:10 AM78.8 °F77.0 °F94 %29.88 in6.0 miCalmRainLight Rain
12:11 AM78.8 °F77.0 °F94 %29.88 in8.0 miNW (310°)3.5 mphRainLight Rain
12:12 AM78.8 °F77.0 °F94 %29.87 in10.0 miCalmMostly Cloudy
12:29 AM78.8 °F77.0 °F94 %29.87 in6.0 miWest (270°)4.6 mphRainRain
12:44 AM78.8 °F75.2 °F89 %29.86 in10.0 miWest (280°)3.5 mphMostly Cloudy
12:55 AM78.1 °F75.9 °F93 %29.86 in10.0 miCalm0.07 inMostly Cloudy
1:04 AM78.8 °F75.2 °F89 %29.86 in7.0 miCalmRainLight Rain
1:08 AM78.8 °F73.4 °F83 %29.86 in2.5 miNorth (360°)3.5 mphRainHeavy Rain
1:09 AM78.8 °F73.4 °F83 %29.86 in2.0 miCalmRainHeavy Rain
1:12 AM77.0 °F73.4 °F89 %29.86 in1.2 miCalmRainHeavy Rain
1:13 AM77.0 °F73.4 °F89 %29.86 in1.2 miWest (260°)4.6 mphRainHeavy Rain
1:14 AM77.0 °F73.4 °F89 %29.86 in1.2 miWest (260°)4.6 mphRainHeavy Rain
1:15 AM77.0 °F73.4 °F89 %29.86 in1.5 miWest (260°)5.8 mphRainHeavy Rain
1:19 AM77.0 °F73.4 °F89 %29.86 in2.0 miWest (270°)4.6 mphRainLight Rain
1:20 AM77.0 °F73.4 °F89 %29.86 in3.0 miWest (280°)3.5 mphRainLight Rain
1:24 AM77.0 °F73.4 °F89 %29.86 in8.0 miCalmRainLight Rain
1:26 AM78.8 °F73.4 °F83 %29.86 in10.0 miCalmOvercast
1:32 AM78.8 °F75.2 °F89 %29.86 in10.0 miCalmRainLight Rain
1:35 AM78.8 °F75.2 °F89 %29.86 in7.0 miCalmRainLight Rain
1:48 AM78.8 °F75.2 °F89 %29.85 in10.0 miCalmMostly Cloudy
1:53 AM78.8 °F75.2 °F89 %29.85 in10.0 miCalmScattered Clouds
1:55 AM79.2 °F76.1 °F90 %29.85 in10.0 miCalm0.19 inScattered Clouds
2:55 AM79.3 °F76.8 °F92 %29.84 in10.0 miNorth (360°)5.8 mphPartly Cloudy
3:05 AM78.8 °F75.2 °F89 %29.84 in10.0 miNorth (350°)4.6 mphLight Drizzle
3:15 AM78.8 °F77.0 °F94 %29.84 in10.0 miNorth (350°)4.6 mphPartly Cloudy
3:35 AM77.0 °F75.2 °F94 %29.84 in10.0 miSouth (190°)6.9 mphRainLight Rain
3:41 AM77.0 °F73.4 °F89 %29.84 in9.0 miSouth (190°)8.1 mphRainLight Rain
3:43 AM77.0 °F73.4 °F89 %29.84 in9.0 miSouth (190°)8.1 mphRainLight Rain
3:51 AM77.0 °F73.4 °F89 %29.84 in10.0 miSSW (210°)5.8 mphRainLight Rain
3:52 AM77.0 °F73.4 °F89 %29.84 in10.0 miSouth (190°)3.5 mphRainLight Rain
3:55 AM77.2 °F71.8 °F83 %29.84 in10.0 miCalm0.01 inRainLight Rain
3:56 AM77.0 °F71.6 °F83 %29.84 in10.0 miCalmRainLight Rain
3:57 AM77.0 °F71.6 °F83 %29.84 in10.0 miCalmLight Drizzle
4:04 AM77.0 °F73.4 °F89 %29.84 in10.0 miNNW (330°)5.8 mphLight Drizzle
4:06 AM77.0 °F73.4 °F89 %29.84 in10.0 miNW (310°)5.8 mphMostly Cloudy
4:08 AM77.0 °F73.4 °F89 %29.84 in10.0 miNW (320°)5.8 mphScattered Clouds
4:51 AM77.0 °F73.4 °F89 %29.85 in8.0 miSouth (190°)11.5 mphRainLight Rain
4:54 AM77.0 °F73.4 °F89 %29.85 in2.0 miSSW (210°)9.2 mphRainLight Rain
4:55 AM76.6 °F72.9 °F88 %29.85 in1.5 miWSW (240°)9.2 mph0.28 inRainHeavy Rain
4:56 AM77.0 °F73.4 °F89 %29.85 in1.2 miWest (260°)10.4 mphRainHeavy Rain
4:59 AM77.0 °F71.6 °F83 %29.85 in1.2 miWSW (240°)10.4 mphRainHeavy Rain
5:00 AM77.0 °F71.6 °F83 %29.85 in1.2 miWSW (240°)11.5 mphRainRain
5:03 AM77.0 °F71.6 °F83 %29.85 in1.5 miWSW (250°)11.5 mphRainLight Rain
5:04 AM75.2 °F71.6 °F89 %29.85 in2.0 miWest (260°)10.4 mphRainLight Rain
5:05 AM75.2 °F69.8 °F83 %29.85 in2.5 miWest (260°)9.2 mphRainLight Rain
5:06 AM75.2 °F69.8 °F83 %29.85 in4.0 miWest (270°)9.2 mphRainRain
5:07 AM75.2 °F69.8 °F83 %29.85 in5.0 miWest (270°)8.1 mphRainHeavy Rain
5:12 AM75.2 °F71.6 °F89 %29.85 in6.0 miWest (280°)8.1 mphRainLight Rain
5:22 AM77.0 °F71.6 °F83 %29.84 in10.0 miWNW (300°)8.1 mphOvercast
5:32 AM75.2 °F69.8 °F83 %29.86 in10.0 miNorth (350°)11.5 mphRainLight Rain
5:36 AM75.2 °F71.6 °F89 %29.86 in2.5 miNorth (10°)18.4 mph25.3 mphRainLight Rain
5:37 AM75.2 °F71.6 °F89 %29.86 in2.0 miNNE (20°)20.7 mph27.6 mphRainHeavy Rain
5:39 AM75.2 °F71.6 °F89 %29.87 in1.2 miNNE (20°)10.4 mph29.9 mphRainHeavy Rain
5:40 AM77.0 °F71.6 °F83 %29.86 in1.0 miNorth (360°)6.9 mph29.9 mphRainHeavy Rain
5:41 AM77.0 °F71.6 °F83 %29.86 in0.8 miNNW (330°)6.9 mph29.9 mphRainHeavy Rain
5:43 AM77.0 °F71.6 °F83 %29.86 in0.5 miWNW (300°)9.2 mph29.9 mphRainHeavy Rain
5:44 AM75.2 °F71.6 °F89 %29.86 in0.5 miWNW (300°)10.4 mph29.9 mphRainHeavy Rain
5:45 AM75.2 °F71.6 °F89 %29.86 in0.5 miNW (310°)8.1 mph29.9 mphRainHeavy Rain
5:47 AM77.0 °F71.6 °F83 %29.86 in0.8 miNorth (350°)3.5 mph29.9 mphRainRain
5:48 AM77.0 °F71.6 °F83 %29.86 in0.8 miCalmRainRain
5:50 AM77.0 °F71.6 °F83 %29.86 in1.0 miCalmRainRain
5:51 AM77.0 °F71.6 °F83 %29.86 in1.5 miCalmRainLight Rain
5:52 AM77.0 °F71.6 °F83 %29.86 in2.0 miCalmRainLight Rain
5:53 AM77.0 °F71.6 °F83 %29.86 in3.0 miCalmRainLight Rain
5:55 AM77.0 °F71.4 °F83 %29.86 in8.0 miCalm0.86 inRainLight Rain
5:56 AM77.0 °F71.6 °F83 %29.86 in9.0 miCalmLight Drizzle
5:58 AM77.0 °F71.6 °F83 %29.86 in10.0 miNNE (30°)4.6 mphScattered Clouds
6:55 AM75.9 °F72.9 °F90 %29.87 in10.0 miCalm0.00 inClear
7:54 AM78.8 °F75.2 °F89 %29.87 in10.0 miENE (60°)3.5 mphRainHeavy Rain
7:55 AM78.4 °F75.4 °F90 %29.87 in10.0 miENE (60°)3.5 mph0.00 inRainHeavy Rain
8:11 AM80.6 °F75.2 °F84 %29.87 in10.0 miEast (80°)4.6 mphClear
8:55 AM80.8 °F77.5 °F90 %29.87 in10.0 miENE (70°)6.9 mph0.00 inClear
9:55 AM82.0 °F79.0 °F90 %29.87 in10.0 miEast (100°)6.9 mphClear
10:55 AM84.2 °F77.0 °F79 %29.91 in10.0 miEast (90°)9.2 mphPartly Cloudy
12:07 PM84.2 °F78.8 °F84 %29.86 in10.0 miEast (90°)6.9 mphMostly Cloudy
12:21 PM84.2 °F78.8 °F84 %29.87 in10.0 miEast (90°)10.4 mphMostly Cloudy
12:48 PM84.2 °F80.6 °F89 %29.85 in10.0 miEast (100°)6.9 mphMostly Cloudy
12:55 PM84.9 °F79.7 °F84 %29.85 in10.0 miEast (90°)6.9 mphMostly Cloudy
1:11 PM86.0 °F80.6 °F84 %29.85 in10.0 miEast (100°)8.1 mphMostly Cloudy
1:55 PM85.3 °F80.6 °F86 %29.85 in10.0 miEast (90°)10.4 mphPartly Cloudy
2:08 PM84.2 °F80.6 °F89 %29.84 in10.0 miEast (90°)8.1 mphMostly Cloudy
2:30 PM84.2 °F80.6 °F89 %29.84 in10.0 miESE (110°)8.1 mphMostly Cloudy
2:31 PM84.2 °F80.6 °F89 %29.83 in10.0 miEast (100°)8.1 mphMostly Cloudy
2:38 PM86.0 °F80.6 °F84 %29.83 in10.0 miEast (100°)10.4 mphMostly Cloudy
2:55 PM86.0 °F81.0 °F85 %29.83 in10.0 miEast (100°)9.2 mphPartly Cloudy
3:55 PM85.6 °F79.7 °F82 %29.82 in10.0 miEast (80°)8.1 mphPartly Cloudy
4:41 PM84.2 °F80.6 °F89 %29.82 in10.0 miENE (70°)10.4 mphMostly Cloudy
4:44 PM84.2 °F78.8 °F84 %29.82 in10.0 miENE (70°)10.4 mphScattered Clouds
4:55 PM84.4 °F79.7 °F86 %29.82 in10.0 miEast (100°)9.2 mphScattered Clouds
5:55 PM82.4 °F73.4 °F74 %29.84 in10.0 miEast (80°)6.9 mphScattered Clouds
6:55 PM81.7 °F76.5 °F84 %29.85 in10.0 miEast (90°)6.9 mphClear
7:55 PM81.1 °F77.9 °F90 %29.87 in10.0 miEast (80°)5.8 mphScattered Clouds
8:55 PM81.3 °F78.4 °F91 %29.88 in10.0 miENE (70°)8.1 mphPartly Cloudy
9:55 PM81.0 °F78.8 °F93 %29.88 in10.0 miEast (80°)8.1 mphScattered Clouds
10:55 PM80.6 °F79.0 °F95 %29.93 in10.0 miENE (60°)6.9 mphScattered Clouds
11:35 PM80.6 °F78.8 °F94 %29.88 in10.0 miENE (70°)9.2 mphMostly Cloudy
11:47 PM80.6 °F78.8 °F94 %29.88 in10.0 miENE (70°)10.4 mphScattered Clouds
11:55 PM80.6 °F78.8 °F94 %29.88 in10.0 miENE (70°)8.1 mphScattered Clouds
Hourly data recorded from PGUA, located miles away from Tamuning, Guam







STORIES FROM OUR PARTNERS